Location: Dvur Kralove nad Labem
(50.4330°N, 15.8170°E)
Time: 15:04:21
(UTC+02:00)

ISS - Pass Details

Date: 21 May 2018
Orbit: 402 x 407 km, 51.6° (Epoch: 24 May)

Event Time Altitude Azimuth Distance (km) Brightness Sun altitude
Rises 22:15:52 0° 223° (SW) 2,310 -0.1 -11.2°
Reaches altitude 10° 22:18:03 10° 213° (SSW) 1,453 -1.2 -11.4°
Maximum altitude 22:21:00 32° 149° (SSE) 723 -3.1 -11.7°
Drops below altitude 10° 22:23:57 10° 84° (E) 1,458 -1.3 -12.0°
Sets 22:26:09 0° 74° (ENE) 2,320 -0.2 -12.2°
